Location: Unspecified
(41.1637°N, 24.2901°E)
Time: 15:44:33
(UTC+01:00)

ISS - Pass Details

Date: 23 November 2020
Orbit: 418 x 421 km, 51.6° (Epoch: 29 November)

Event Time Altitude Azimuth Distance (km) Brightness Sun altitude
Rises 17:19:16 0° 252° (WSW) 2,353 2.0 -15.1°
Reaches altitude 10° 17:21:26 10° 260° (W) 1,493 0.4 -15.5°
Maximum altitude 17:24:36 39° 331° (NNW) 641 -2.8 -16.1°
Enters shadow 17:25:58 26° 22° (NNE) 866 -2.5 -16.4°
